{"data":{"norad_id":58272,"epoch":"2026-06-02T22:21:57.441312Z","epoch_age_seconds":9705992,"freshness":"OLD","line1":"1 58272U 23174S   26153.93191483  .03113610  24387-5  11405-2 0  9993","line2":"2 58272  97.3622 253.7995 0013128 263.9798  95.9997 16.24469137144138","mean_motion":16.24469137,"eccentricity":0.0013128,"inclination_deg":97.3622,"raan_deg":253.7995,"arg_perigee_deg":263.9798,"mean_anomaly_deg":95.9997,"bstar":0.0011405,"rev_number":14413,"period_min":88.644343385885,"perigee_km":198.80000055937,"apogee_km":216.09110611141,"semimajor_km":6585.5825533354,"source":"CELESTRAK","updated_at":"2026-06-03T09:00:36.841632Z"}}